TimeAST,TemperatureF,Dew PointF,Humidity,Sea Level PressureIn,VisibilityMPH,Wind Direction,Wind SpeedMPH,Gust SpeedMPH,PrecipitationIn,Events,Conditions,WindDirDegrees,DateUTC
2:00 AM,73,72,94,29.97,10,Calm,Calm,,,,Scattered Clouds,,2012-11-03 06:00:00
2:00 AM,73.4,71.6,94,29.95,6.2,Calm,Calm,-,N/A,,Mostly Cloudy,0,2012-11-03 06:00:00
5:00 AM,73.4,71.6,94,29.95,6.2,Calm,Calm,-,N/A,,Scattered Clouds,0,2012-11-03 09:00:00
8:00 AM,74,73,96,30.00,5,Calm,Calm,,,,Partly Cloudy,,2012-11-03 12:00:00
8:00 AM,73.4,73.4,100,29.98,5.0,Calm,Calm,-,N/A,,Scattered Clouds,0,2012-11-03 12:00:00
9:00 AM,82.4,77.0,84,30.01,6.2,Calm,Calm,-,N/A,,Scattered Clouds,0,2012-11-03 13:00:00
10:00 AM,84.2,77.0,79,30.01,6.2,Calm,Calm,-,N/A,,Scattered Clouds,0,2012-11-03 14:00:00
11:00 AM,84,76,72,30.02,10,ENE,6.7,,,,Partly Cloudy,60,2012-11-03 15:00:00
11:00 AM,84.2,77.0,79,30.01,6.2,ENE,8.1,-,N/A,,Scattered Clouds,60,2012-11-03 15:00:00
12:00 PM,84.2,75.2,74,29.98,6.2,NNE,9.2,-,N/A,,Scattered Clouds,30,2012-11-03 16:00:00
1:00 PM,84.2,77.0,79,29.98,6.2,ENE,15.0,-,N/A,,Scattered Clouds,60,2012-11-03 17:00:00
2:00 PM,86,76,67,29.97,10,ENE,13.4,,,,Partly Cloudy,60,2012-11-03 18:00:00
2:00 PM,86.0,77.0,74,29.95,6.2,ENE,13.8,-,N/A,,Scattered Clouds,60,2012-11-03 18:00:00
3:00 PM,86.0,77.0,74,29.95,6.2,ENE,11.5,-,N/A,,Scattered Clouds,60,2012-11-03 19:00:00
4:00 PM,84.2,77.0,79,29.92,6.2,East,11.5,-,N/A,,Scattered Clouds,90,2012-11-03 20:00:00
5:00 PM,84,77,74,29.94,10,East,8.9,,,,Partly Cloudy,90,2012-11-03 21:00:00
5:00 PM,84.2,77.0,79,29.92,6.2,East,9.2,-,N/A,,Scattered Clouds,90,2012-11-03 21:00:00
6:00 PM,80.6,77.0,89,29.95,5.0,East,11.5,-,N/A,Rain,Light Rain,80,2012-11-03 22:00:00
7:00 PM,80.6,75.2,84,29.95,6.2,Calm,Calm,-,N/A,,Mostly Cloudy,0,2012-11-03 23:00:00
8:00 PM,79,76,87,29.98,10,Calm,Calm,,,,Partly Cloudy,,2012-11-04 00:00:00
8:00 PM,78.8,75.2,89,29.98,6.2,Calm,Calm,-,N/A,,Scattered Clouds,0,2012-11-04 00:00:00
11:00 PM,75,75,99,30.01,0,Calm,Calm,,,Rain,Heavy Rain,,2012-11-04 03:00:00
11:00 PM,75.2,75.2,100,30.01,1.9,Calm,Calm,-,N/A,Rain,Heavy Rain,0,2012-11-04 03:00:00